This is the latest recevied weather packets stored in our database for station/object F4AMY-13. If no packets are shown the sender has not sent any weather packets the latest 10 day(s).
| Time | Temp. | Humidity | Pressure | Rain* | Wind** | Luminosity | Snow |
|---|---|---|---|---|---|---|---|
| 1777767766 | 12.78° C | 70% | 1018.8 hPa | 0 mm | 0 m/s | 0 W/m² | - |
| 1777767466 | 12.78° C | 68% | 1018.8 hPa | 0 mm | 0 m/s | 0 W/m² | - |
| 1777767166 | 12.78° C | 68% | 1018.8 hPa | 0 mm | 0 m/s | 0 W/m² | - |
| 1777766866 | 12.78° C | 67% | 1018.6 hPa | 0 mm | 0 m/s | 0 W/m² | - |
| 1777766566 | 12.78° C | 67% | 1018.6 hPa | 0 mm | 0 m/s | 0 W/m² | - |
| 1777766266 | 12.78° C | 67% | 1018.8 hPa | 0 mm | 0 m/s | 0 W/m² | - |
| 1777765966 | 12.78° C | 68% | 1018.6 hPa | 0 mm | 0 m/s | 0 W/m² | - |
| 1777765666 | 12.78° C | 65% | 1018.9 hPa | 0 mm | 0 m/s | 0 W/m² | - |
| 1777765366 | 12.22° C | 66% | 1018.7 hPa | 0 mm | 0 m/s | 0 W/m² | - |
| 1777765065 | 12.22° C | 68% | 1018.6 hPa | 0 mm | 0 m/s | 0 W/m² | - |
| 1777764765 | 12.22° C | 66% | 1018.9 hPa | 0 mm | 0 m/s | 0 W/m² | - |
| 1777764466 | 12.22° C | 67% | 1018.8 hPa | 0 mm | 0 m/s | 0 W/m² | - |
| 1777764165 | 12.22° C | 70% | 1019 hPa | 0 mm | 0 m/s | 0 W/m² | - |
| 1777763865 | 12.22° C | 71% | 1018.9 hPa | 0 mm | 0 m/s | 0 W/m² | - |
| 1777763565 | 12.22° C | 70% | 1019.1 hPa | 0 mm | 0 m/s | 0 W/m² | - |
| 1777763265 | 12.22° C | 72% | 1019 hPa | 0 mm | 0 m/s | 0 W/m² | - |
| 1777762965 | 12.22° C | 71% | 1019.2 hPa | 0 mm | 0 m/s | 0 W/m² | - |
| 1777762665 | 12.22° C | 73% | 1019 hPa | 0 mm | 0 m/s | 0 W/m² | - |
| 1777762365 | 12.22° C | 71% | 1019.4 hPa | 0 mm | 0 m/s | 0 W/m² | - |
| 1777762065 | 12.22° C | 73% | 1019.3 hPa | 0 mm | 0 m/s | 0 W/m² | - |
| 1777761765 | 12.22° C | 72% | 1019.3 hPa | 0 mm | 0 m/s | 0 W/m² | - |
| 1777761465 | 12.22° C | 72% | 1019.5 hPa | 0 mm | 0 m/s | 0 W/m² | - |
| 1777761165 | 12.22° C | 72% | 1019.3 hPa | 0 mm | 0 m/s | 0 W/m² | - |
| 1777760865 | 12.22° C | 71% | 1019.1 hPa | 0 mm | 0 m/s | 0 W/m² | - |
| 1777760565 | 12.78° C | 71% | 1019.2 hPa | 0 mm | 0 m/s | 0 W/m² | - |
* Rain latest hour (hover to see other rain measurements)
** Current wind speed in m/s (hover to see current wind gust speed)